• Join FlightAware (Why Join?)
  • Login
  • US Flag 
06:40PM EDT


 

Airport Tracker/Info


-or-


 

Live Flight TrackerFlight Track Log ✈ DAL268 ✈ 28-May-2013 ✈ KATL - KJFK

Flight Track Log - Related Links

Times and Time Zones

All times are in EDT time to prevent confusion due to time zone crossing. See the DAL268 flight status page for this flight to view local times or setup timezone preferences in your user account.

Time Position Orientation Groundspeed Altitude Reporting Facility
EDT Latitude Longitude Course Direction KTS MPH feet Rate Location/Type
06:06PM 33.6420 -84.4350 North 16 18  Level FlightAware
06:08PM 33.6400 -84.4350 180° South 12 14 60 Level FlightAware
06:11PM 33.7929 -84.2348 73° East  Level Estimated
06:12PM 33.7552 -84.1351 114° Southeast  Level FlightAware Approximate
06:13PM 33.8172 -84.0548 101° East  Level Estimated
06:13PM 33.6370 -84.4310 101° East 21 24  Level FlightAware
06:13PM 33.6360 -84.4320 220° Southwest 24 28 120 Level FlightAware
06:14PM 33.6360 -84.4330 270° West 27 31 180 Level FlightAware
06:14PM 33.6360 -84.4350 270° West 21 24 180 Level FlightAware
06:15PM 33.6360 -84.4370 270° West 21 24 180 Level FlightAware
06:16PM 33.6360 -84.4380 270° West 21 24 180 Level FlightAware
06:18PM 33.6712 -84.2364 78° East  Level FlightAware Approximate
06:18PM 33.6360 -84.4410 78° East 19 22  Level FlightAware
06:21PM 33.7869 -84.2435 73° East  Level Estimated
06:22PM 33.7530 -84.1418 112° Southeast  Level FlightAware Approximate
06:23PM 33.8149 -84.0615 101° East  Level Estimated
06:23PM 33.6350 -84.4020 101° East 171 197 1,700  Level FlightAware
06:23PM 33.6350 -84.3730 90° East 194 223 2,700 1,920 Climbing FlightAware
06:23PM 33.6340 -84.3390 92° East 228 262 3,500 1,860 Climbing FlightAware
06:24PM 33.6340 -84.3260 90° East 240 276 3,900 2,400 Climbing FlightAware
06:24PM 33.6340 -84.2850 90° East 265 305 5,100 2,820 Climbing FlightAware
06:25PM 33.6340 -84.2180 90° East 281 323 7,400 2,880 Climbing FlightAware
06:25PM 33.6340 -84.1750 90° East 294 338 8,600 2,640 Climbing FlightAware
06:26PM 33.6350 -84.1080 89° East 313 360 10,400 1,980 Climbing FlightAware
06:27PM 33.6390 -84.0230 87° East 364 419 11,400 1,620 Climbing FlightAware
06:27PM 33.6440 -83.9350 86° East 390 449 12,800 2,340 Climbing FlightAware
06:28PM 33.6490 -83.8500 86° East 397 457 14,600 2,520 Climbing FlightAware
06:29PM 33.6550 -83.7460 86° East 410 472 16,400 2,280 Climbing FlightAware
06:30PM 33.6620 -83.6560 85° East 419 482 17,900 2,040 Climbing FlightAware
06:30PM 33.6900 -83.5650 70° East 432 497 19,200 1,800 Climbing FlightAware
06:31PM 33.7290 -83.4710 63° Northeast 445 512 20,500 1,920 Climbing FlightAware
06:32PM 33.7690 -83.3720 64° Northeast 452 520 22,000 2,100 Climbing FlightAware
06:32PM 33.8060 -83.2810 64° Northeast 451 519 23,500 1,800 Climbing FlightAware
06:33PM 33.8460 -83.1800 64° Northeast 462 532 24,600 1,380 Climbing FlightAware
06:34PM 33.8830 -83.0880 64° Northeast 473 544 25,500 1,500 Climbing FlightAware
06:34PM 33.9250 -82.9820 64° Northeast 476 548 26,700 1,500 Climbing FlightAware
06:35PM 33.9620 -82.8900 64° Northeast 480 552 27,600 1,260 Climbing FlightAware
06:36PM 34.0050 -82.7830 64° Northeast 487 560 28,500 1,560 Climbing FlightAware
06:37PM 34.0430 -82.6860 65° Northeast 480 552 29,800 1,980 Climbing FlightAware
06:37PM 34.0850 -82.5800 64° Northeast 469 540 31,300 1,740 Climbing FlightAware
06:38PM 34.1190 -82.4930 65° Northeast 469 540 32,200 1,500 Climbing FlightAware
06:39PM 34.1600 -82.3890 65° Northeast 467 537 33,300 1,260 Climbing FlightAware
06:39PM 34.1970 -82.2940 65° Northeast 471 542 34,000 1,020 Climbing FlightAware
06:40PM 34.2390 -82.1880 64° Northeast 468 539 34,800 660 Climbing FlightAware
06:41PM 34.2800 -82.0980 61° Northeast 465 535 35,000 120 Climbing FlightAware
06:41PM 34.3310 -81.9970 59° Northeast 468 539 35,000  Level FlightAware
06:42PM 34.3750 -81.9090 59° Northeast 466 536 35,000  Level FlightAware
06:43PM 34.4200 -81.8180 59° Northeast 466 536 35,000  Level FlightAware
06:44PM 34.4710 -81.7170 58° Northeast 465 535 35,000  Level FlightAware
06:44PM 34.5170 -81.6240 59° Northeast 465 535 35,000  Level FlightAware
06:45PM 34.5660 -81.5250 59° Northeast 465 535 35,000  Level FlightAware
06:46PM 34.6100 -81.4370 59° Northeast 465 535 35,000  Level FlightAware
06:46PM 34.6560 -81.3430 59° Northeast 465 535 35,000  Level FlightAware
06:47PM 34.7020 -81.2490 59° Northeast 465 535 35,000  Level FlightAware
06:48PM 34.7510 -81.1500 59° Northeast 465 535 35,000  Level FlightAware
06:48PM 34.7990 -81.0510 59° Northeast 465 535 35,000  Level FlightAware
06:49PM 34.8430 -80.9610 59° Northeast 468 539 35,000  Level FlightAware
06:50PM 34.8900 -80.8650 59° Northeast 472 543 35,000  Level FlightAware
06:51PM 34.9360 -80.7710 59° Northeast 472 543 35,000  Level FlightAware
06:51PM 34.9810 -80.6790 59° Northeast 472 543 35,000  Level FlightAware
06:52PM 35.0300 -80.5770 60° Northeast 470 541 35,000  Level FlightAware
06:53PM 35.0730 -80.4850 60° Northeast 467 537 35,000  Level FlightAware
06:53PM 35.1110 -80.3880 64° Northeast 464 534 35,000  Level FlightAware
06:54PM 35.1480 -80.2830 67° East 453 521 35,000  Level FlightAware
06:55PM 35.1820 -80.1780 68° East 446 513 35,000  Level FlightAware
06:55PM 35.2140 -80.0810 68° East 443 510 35,000  Level FlightAware
06:56PM 35.2440 -79.9900 68° East 445 512 35,000  Level FlightAware
06:57PM 35.2760 -79.8920 68° East 445 512 35,000  Level FlightAware
06:58PM 35.3050 -79.8080 67° East 445 512 35,000  Level FlightAware
06:59PM 35.3460 -79.6890 67° East 445 512 35,000  Level FlightAware
06:59PM 35.3710 -79.6180 67° East 445 512 35,000  Level FlightAware
07:00PM 35.4120 -79.4990 67° East 445 512 35,000  Level FlightAware
07:01PM 35.4370 -79.4280 67° East 445 512 35,000  Level FlightAware
07:02PM 35.4920 -79.2360 71° East 443 510 35,000  Level FlightAware
07:02PM 35.5240 -79.1370 68° East 443 510 35,000  Level FlightAware
07:03PM 35.5470 -79.0320 75° East 437 503 35,000  Level FlightAware
07:04PM 35.5510 -78.9540 86° East 437 503 35,000  Level FlightAware
07:04PM 35.5480 -78.8350 92° East 437 503 35,000  Level FlightAware
07:05PM 35.5490 -78.7180 89° East 437 503 35,000  Level FlightAware
07:06PM 35.5680 -78.6250 76° East 445 512 35,000  Level FlightAware
07:06PM 35.6120 -78.5260 61° Northeast 447 514 35,000  Level FlightAware
07:07PM 35.6510 -78.4380 61° Northeast 448 516 35,000  Level FlightAware
07:08PM 35.6940 -78.3430 61° Northeast 450 518 35,000  Level FlightAware
07:09PM 35.7390 -78.2420 61° Northeast 451 519 35,000  Level FlightAware
07:09PM 35.7770 -78.1570 61° Northeast 451 519 35,000  Level FlightAware
07:10PM 35.8160 -78.0680 62° Northeast 451 519 35,000  Level FlightAware
07:11PM 35.8570 -77.9760 61° Northeast 451 519 35,000  Level FlightAware
07:11PM 35.9050 -77.8660 62° Northeast 452 520 35,000  Level FlightAware
07:12PM 35.9430 -77.7810 61° Northeast 453 521 35,000  Level FlightAware
07:13PM 35.9920 -77.6800 59° Northeast 457 526 35,000  Level FlightAware
07:13PM 36.0410 -77.5990 53° Northeast 458 527 35,000  Level FlightAware
07:14PM 36.0990 -77.5070 52° Northeast 460 529 35,000  Level FlightAware
07:15PM 36.1630 -77.4040 52° Northeast 458 527 35,000  Level FlightAware
07:16PM 36.2250 -77.3030 53° Northeast 458 527 35,000  Level FlightAware
07:16PM 36.2700 -77.2280 53° Northeast 459 528 35,000  Level FlightAware
07:17PM 36.3080 -77.0990 70° East 454 522 35,000  Level FlightAware
07:18PM 36.3270 -76.9710 80° East 454 522 35,000  Level FlightAware
07:19PM 36.3410 -76.8770 79° East 454 522 35,000  Level FlightAware
07:20PM 36.3690 -76.6970 79° East 457 526 35,000  Level FlightAware
07:21PM 36.3810 -76.6220 79° East 457 526 35,000  Level FlightAware
07:21PM 36.4430 -76.5310 50° Northeast 460 529 35,000  Level FlightAware
07:22PM 36.5160 -76.4840 27° Northeast 458 527 35,000  Level FlightAware
07:23PM 36.5910 -76.4380 26° Northeast 451 519 35,000  Level FlightAware
07:23PM 36.6870 -76.3780 27° Northeast 458 527 35,000  Level FlightAware
07:24PM 36.7650 -76.3290 27° Northeast 458 527 35,000  Level FlightAware
07:25PM 36.8470 -76.2770 27° Northeast 459 528 35,000  Level FlightAware
07:25PM 36.9040 -76.2420 26° Northeast 459 528 35,000  Level FlightAware
07:26PM 37.0020 -76.1771 28° Northeast 460 529 35,000  Level FlightAware ADS-B
07:27PM 37.0834 -76.1223 28° Northeast 462 532 35,000  Level FlightAware ADS-B
07:27PM 37.1416 -76.0834 28° Northeast 462 532 35,000  Level FlightAware ADS-B
07:28PM 37.2185 -76.0321 28° Northeast 462 532 35,000  Level FlightAware ADS-B
07:28PM 37.2752 -75.9941 28° Northeast 462 532 35,000  Level FlightAware ADS-B
07:29PM 37.3517 -75.9428 28° Northeast 461 531 35,000  Level FlightAware ADS-B
07:30PM 37.4084 -75.9047 28° Northeast 461 531 35,000  Level FlightAware ADS-B
07:31PM 37.5140 -75.8340 28° Northeast 459 528 35,000  Level FlightAware
07:31PM 37.6020 -75.7740 28° Northeast 459 528 35,000  Level FlightAware
07:32PM 37.6790 -75.7210 29° Northeast 459 528 35,000  Level FlightAware
07:33PM 37.7692 -75.6603 28° Northeast 457 526 35,000  Level FlightAware ADS-B
07:33PM 37.8274 -75.6206 28° Northeast 456 525 35,000  Level FlightAware ADS-B
07:34PM 37.8833 -75.5825 28° Northeast 455 524 35,000  Level FlightAware ADS-B
07:35PM 37.9930 -75.5080 28° Northeast 458 527 35,000  Level FlightAware
07:35PM 38.0166 -75.4912 29° Northeast 455 524 35,000  Level FlightAware ADS-B
07:36PM 38.0766 -75.4537 26° Northeast 469 540 35,000  Level FlightAware ADS-B
07:36PM 38.1369 -75.4145 27° Northeast 469 540 35,000  Level FlightAware ADS-B
07:37PM 38.1985 -75.3741 27° Northeast 466 536 35,000  Level FlightAware ADS-B
07:37PM 38.2625 -75.3331 27° Northeast 466 536 35,000  Level FlightAware ADS-B
07:38PM 38.3310 -75.2898 26° Northeast 466 536 35,000  Level FlightAware ADS-B
07:38PM 38.4019 -75.2450 26° Northeast 469 540 35,000  Level FlightAware ADS-B
07:39PM 38.4615 -75.2073 26° Northeast 469 540 35,000  Level FlightAware ADS-B
07:40PM 38.5461 -75.1536 26° Northeast 470 541 35,000  Level FlightAware ADS-B
07:40PM 38.6094 -75.1133 26° Northeast 469 540 35,000  Level FlightAware ADS-B
07:41PM 38.6681 -75.0758 27° Northeast 466 536 35,000 -240 Level FlightAware ADS-B
07:41PM 38.7285 -75.0371 27° Northeast 465 535 34,800 -660 Descending FlightAware ADS-B
07:42PM 38.7928 -74.9957 27° Northeast 460 529 34,300 -1,560 Descending FlightAware ADS-B
07:42PM 38.8545 -74.9561 27° Northeast 463 533 33,100 -2,400 Descending FlightAware ADS-B
07:43PM 38.9173 -74.9155 27° Northeast 468 539 31,700 -2,520 Descending FlightAware ADS-B
07:43PM 38.9771 -74.8769 27° Northeast 468 539 30,500 -2,580 Descending FlightAware ADS-B
07:44PM 39.0355 -74.8392 27° Northeast 475 547 29,100 -2,100 Descending FlightAware ADS-B
07:44PM 39.0887 -74.8010 29° Northeast 468 539 28,500 -1,440 Descending FlightAware ADS-B
07:45PM 39.1418 -74.7507 36° Northeast 465 535 27,700 -1,680 Descending FlightAware ADS-B
07:45PM 39.1926 -74.6964 40° Northeast 459 528 26,800 -2,220 Descending FlightAware ADS-B
07:46PM 39.2409 -74.6437 40° Northeast 455 524 25,500 -2,520 Descending FlightAware ADS-B
07:46PM 39.2889 -74.5913 40° Northeast 450 518 24,300 -2,340 Descending FlightAware ADS-B
07:47PM 39.3372 -74.5387 40° Northeast 441 507 23,200 -2,280 Descending FlightAware ADS-B
07:47PM 39.3854 -74.4861 40° Northeast 432 497 22,000 -2,460 Descending FlightAware ADS-B
07:48PM 39.4320 -74.4354 40° Northeast 428 493 20,700 -2,580 Descending FlightAware ADS-B
07:48PM 39.4786 -74.3845 40° Northeast 426 490 19,400 -2,100 Descending FlightAware ADS-B
07:49PM 39.5271 -74.3315 40° Northeast 412 474 18,500 -1,320 Descending FlightAware ADS-B
07:49PM 39.5735 -74.2808 40° Northeast 400 460 18,000 -480 Descending FlightAware ADS-B
07:50PM 39.6188 -74.2310 40° Northeast 403 464 18,000 -600 Level FlightAware ADS-B
07:51PM 39.6620 -74.1835 40° Northeast 395 455 17,400 -1,620 Descending FlightAware ADS-B
07:51PM 39.7030 -74.1382 40° Northeast 385 443 16,400 -2,100 Descending FlightAware ADS-B
07:52PM 39.7445 -74.0925 40° Northeast 380 437 15,300 -2,160 Descending FlightAware ADS-B
07:52PM 39.7891 -74.0432 40° Northeast 375 432 14,100 -2,220 Descending FlightAware ADS-B
07:53PM 39.8426 -73.9870 39° Northeast 368 423 12,600 -2,160 Descending FlightAware ADS-B
07:53PM 39.8948 -73.9471 30° Northeast 360 414 11,400 -1,620 Descending FlightAware ADS-B
07:54PM 39.9391 -73.9160 28° Northeast 346 398 10,800 -600 Descending FlightAware ADS-B
07:54PM 39.9822 -73.8857 28° Northeast 305 351 10,800  Level FlightAware ADS-B
07:55PM 40.0194 -73.8596 28° Northeast 292 336 10,800 -660 Level FlightAware ADS-B
07:55PM 40.0573 -73.8306 30° Northeast 294 338 10,100 -1,380 Descending FlightAware ADS-B
07:56PM 40.0745 -73.8161 33° Northeast 293 337 9,700 -1,440 Descending FlightAware ADS-B
07:56PM 40.1112 -73.7850 33° Northeast 292 336 9,000 -1,260 Descending FlightAware ADS-B
07:57PM 40.1292 -73.7695 33° Northeast 290 334 8,700 -1,260 Descending FlightAware ADS-B
07:57PM 40.1493 -73.7524 33° Northeast 288 331 8,300 -1,440 Descending FlightAware ADS-B
07:57PM 40.1722 -73.7336 32° Northeast 288 331 7,800 -1,440 Descending FlightAware ADS-B
07:57PM 40.1929 -73.7166 32° Northeast 286 329 7,400 -1,440 Descending FlightAware ADS-B
07:58PM 40.2209 -73.6935 32° Northeast 284 327 6,800 -1,440 Descending FlightAware ADS-B
07:58PM 40.2578 -73.6630 32° Northeast 285 328 6,000 -1,500 Descending FlightAware ADS-B
07:59PM 40.2748 -73.6492 32° Northeast 285 328 5,600 -1,440 Descending FlightAware ADS-B
08:00PM 40.3590 -73.5830 31° Northeast 285 328 3,900 -1,260 Descending FlightAware
08:00PM 40.3720 -73.5730 30° Northeast 285 328 3,800 -180 Descending FlightAware
08:01PM 40.4040 -73.5490 30° Northeast 283 326 3,800  Level FlightAware
08:01PM 40.4360 -73.5240 31° Northeast 285 328 3,800  Level FlightAware
08:02PM 40.4690 -73.5000 29° Northeast 287 330 3,800  Level FlightAware
08:02PM 40.4810 -73.4910 30° Northeast 288 331 3,800  Level FlightAware
08:02PM 40.5160 -73.4650 29° Northeast 281 323 3,800  Level FlightAware
08:03PM 40.5490 -73.4390 31° Northeast 285 328 3,800  Level FlightAware
08:03PM 40.5680 -73.4250 29° Northeast 284 327 3,800  Level FlightAware
08:03PM 40.6000 -73.4010 30° Northeast 283 326 3,800  Level FlightAware
08:04PM 40.6300 -73.3880 18° North 278 320 3,800  Level FlightAware
08:04PM 40.6660 -73.3870 North 257 296 3,800  Level FlightAware
08:05PM 40.6800 -73.3860 North 246 283 3,800  Level FlightAware
08:05PM 40.7120 -73.3850 North 231 266 3,800  Level FlightAware
08:06PM 40.7410 -73.3850 360° North 232 267 3,800  Level FlightAware
08:06PM 40.7690 -73.3840 North 232 267 3,800  Level FlightAware
08:07PM 40.8000 -73.3830 North 232 267 3,800  Level FlightAware
08:07PM 40.8020 -73.4000 279° West 193 222 3,800  Level FlightAware
08:07PM 40.8100 -73.4120 311° West 193 222 3,800  Level FlightAware
08:07PM 40.8220 -73.4300 311° West 179 206 3,800 -120 Level FlightAware
08:08PM 40.8440 -73.4640 311° West 179 206 3,700 -540 Descending FlightAware
08:08PM 40.8570 -73.4890 305° West 172 198 3,300 -960 Descending FlightAware
08:09PM 40.8530 -73.5190 260° West 168 193 2,800 -540 Descending FlightAware
08:09PM 40.8450 -73.5450 248° West 167 192 2,800  Level FlightAware
08:10PM 40.8350 -73.5650 237° Southwest 170 196 2,800  Level FlightAware
08:10PM 40.8210 -73.5910 235° Southwest 170 196 2,800  Level FlightAware
08:11PM 40.8080 -73.6140 233° Southwest 170 196 2,800  Level FlightAware
08:11PM 40.7970 -73.6330 233° Southwest 170 196 2,800  Level FlightAware
08:12PM 40.7770 -73.6520 216° Southwest 173 199 2,800 -540 Level FlightAware
08:12PM 40.7560 -73.6680 210° Southwest 175 201 2,300 -900 Descending FlightAware
08:13PM 40.7350 -73.6850 212° Southwest 178 205 1,900 -960 Descending FlightAware
08:13PM 40.7250 -73.6930 211° Southwest 178 205 1,600 -1,020 Descending FlightAware
08:13PM 40.7060 -73.7070 209° Southwest 159 183 1,200 -780 Descending FlightAware
08:14PM 40.6900 -73.7200 212° Southwest 134 154 900 -780 Descending FlightAware
08:14PM 40.6760 -73.7310 211° Southwest 130 150 500 -720 Descending FlightAware
08:15PM 40.6630 -73.7410 210° Southwest 134 154 300 -540 Descending FlightAware
08:15PM 40.6450 -73.7550 211° Southwest 136 157 -600 Descending FlightAware
08:16PM 40.6340 -73.7640 212° Southwest 78 90  Level FlightAware
08:16PM 40.6310 -73.7660 207° Southwest 39 45  Level FlightAware
08:16PM 40.6300 -73.7680 237° Southwest 23 26  Level FlightAware
08:16PM 40.6290 -73.7700 237° Southwest 16 18  Level FlightAware
08:16PM 40.6300 -73.7700 360° North 16 18  Level FlightAware
08:17PM 40.6320 -73.7690 21° North 16 18  Level FlightAware
08:17PM 40.6330 -73.7690 360° North 31 36  Level FlightAware
08:18PM 40.6340 -73.7710 303° West 34 39  Level FlightAware
08:18PM 40.6350 -73.7730 303° West 15 17  Level FlightAware
08:19PM 40.6360 -73.7760 294° West 29 33  Level FlightAware
08:19PM 40.6370 -73.7760 360° North 21 24  Level FlightAware
08:19PM 40.6370 -73.7770 270° West 19 22  Level FlightAware
08:20PM 40.6360 -73.7770 180° South 10 12  Level FlightAware